Weather History for Ft Pierce, FL

Change the Weather History Date:

Friday, July 4, 2014

  Actual Average Record
Temperature  
Mean Temperature 83 °F -  
Max Temperature 93 °F 90 °F 95 °F (1991)
Min Temperature 73 °F 72 °F 65 °F (1986)
Cooling Degree Days 18    
Growing Degree Days 33 (Base 50)    
Moisture  
Dew Point 72 °F    
Average Humidity 79    
Maximum Humidity 91    
Minimum Humidity 45    
Precipitation  
Precipitation 0.08 in - - ()
Sea Level Pressure  
Sea Level Pressure 30.11 in    
Wind  
Wind Speed 5 mph (SSW)    
Max Wind Speed 28 mph    
Max Gust Speed 37 mph    
Visibility 10 miles    
Events Rain , Thunderstorm    
Averages and records for this station are not official NWS values.
T = Trace of Precipitation, MM = Missing Value Source: NWS Daily Summary

Daily Weather History Graph

Daily Weather History Graph

Search for Another Location

Airport:

Trip Planner

Search our weather history database for the weather conditions in past years. The results will help you decide how hot, cold, wet, or windy it might be!

Date:

Astronomy

Jul. 04, 2014 Rise Set
Actual Time 6:31 AM EDT 8:20 PM EDT
Civil Twilight 6:04 AM EDT 8:47 PM EDT
Nautical Twilight 5:32 AM EDT 9:18 PM EDT
Astronomical Twilight 4:59 AM EDT 9:52 PM EDT
Moon 12:48 PM EDT (7/4) 12:16 AM EDT (7/4)
Length of Visible Light 14h 42m
Length of Day
13h 49m
Waxing Crescent, 42% of the Moon is Illuminated
Jul 4
Waxing Crescent
Jul 5
First Quarter
Jul 12
Full
Jul 18
Last Quarter
Jul 26
New

Hourly Weather History & Observations

Time (EDT) Temp. Heat Index Dew Point Humidity Pressure Visibility Wind Dir Wind Speed Gust Speed Precip Events Conditions
12:53 AM 75.9 °F - 71.1 °F 85% 30.10 in 10.0 mi Calm Calm - N/A   Clear
1:53 AM 73.9 °F - 71.1 °F 91% 30.09 in 10.0 mi Calm Calm - N/A   Clear
2:53 AM 73.0 °F - 69.1 °F 87% 30.08 in 10.0 mi Calm Calm - N/A   Clear
3:53 AM 73.9 °F - 71.1 °F 91% 30.08 in 10.0 mi SSE 4.6 mph - N/A   Clear
4:53 AM 73.0 °F - 70.0 °F 90% 30.09 in 10.0 mi Calm Calm - N/A   Clear
5:53 AM 73.0 °F - 69.1 °F 87% 30.09 in 10.0 mi South 3.5 mph - N/A   Clear
6:53 AM 75.0 °F - 71.1 °F 87% 30.10 in 10.0 mi SSE 4.6 mph - N/A   Clear
7:53 AM 77.0 °F - 73.0 °F 88% 30.12 in 10.0 mi South 5.8 mph - N/A   Clear
8:53 AM 82.0 °F 88.6 °F 75.0 °F 79% 30.12 in 10.0 mi SW 5.8 mph - N/A   Clear
9:53 AM 87.1 °F 96.3 °F 75.0 °F 67% 30.13 in 10.0 mi WSW 11.5 mph - N/A   Clear
10:53 AM 88.0 °F 96.5 °F 73.9 °F 63% 30.13 in 10.0 mi WSW 10.4 mph - N/A   Scattered Clouds
11:53 AM 90.0 °F 96.9 °F 72.0 °F 55% 30.13 in 10.0 mi WSW 9.2 mph - N/A   Clear
12:53 PM 89.1 °F 97.0 °F 73.0 °F 59% 30.12 in 10.0 mi SSW 9.2 mph - N/A   Scattered Clouds
1:53 PM 93.0 °F 97.9 °F 69.1 °F 45% 30.09 in 10.0 mi WSW 8.1 mph - N/A   Partly Cloudy
2:53 PM 89.1 °F 96.0 °F 72.0 °F 57% 30.09 in 10.0 mi SE 20.7 mph - N/A   Mostly Cloudy
3:07 PM 84.0 °F 89.6 °F 72.0 °F 67% 30.09 in 10.0 mi SSE 27.6 mph 36.8 mph N/A Thunderstorm Mostly Cloudy
3:23 PM 81.0 °F 85.2 °F 72.0 °F 74% 30.08 in 10.0 mi SSE 16.1 mph 28.8 mph 0.00 in Rain , Thunderstorm Light Thunderstorms and Rain
3:53 PM 82.0 °F 86.3 °F 71.1 °F 69% 30.10 in 10.0 mi South 9.2 mph - 0.00 in Thunderstorm Thunderstorm
4:02 PM 82.0 °F 86.3 °F 71.1 °F 69% 30.09 in 10.0 mi South 4.6 mph - 0.00 in Rain Light Rain
4:34 PM 80.1 °F 84.2 °F 73.0 °F 79% 30.11 in 9.0 mi West 5.8 mph - 0.00 in Rain , Thunderstorm Light Rain
4:53 PM 78.1 °F - 72.0 °F 81% 30.13 in 10.0 mi West 8.1 mph - 0.00 in Rain , Thunderstorm Light Thunderstorms and Rain
5:12 PM 77.0 °F - 73.0 °F 88% 30.13 in 7.0 mi NW 4.6 mph - 0.01 in Rain , Thunderstorm Light Rain
5:28 PM 75.9 °F - 73.0 °F 91% 30.13 in 10.0 mi NNW 3.5 mph - 0.01 in Rain Light Rain
5:53 PM 75.9 °F - 72.0 °F 87% 30.12 in 8.0 mi Calm Calm - 0.02 in Rain Light Rain
6:53 PM 75.0 °F - 72.0 °F 90% 30.13 in 8.0 mi North 3.5 mph - 0.05 in Rain Light Rain
7:53 PM 75.9 °F - 72.0 °F 87% 30.11 in 10.0 mi Calm Calm - 0.01 in   Mostly Cloudy
8:53 PM 75.9 °F - 73.0 °F 91% 30.10 in 10.0 mi Calm Calm - N/A   Clear
9:53 PM 75.9 °F - 73.0 °F 91% 30.12 in 9.0 mi Calm Calm - N/A   Clear
10:53 PM 75.9 °F - 73.0 °F 91% 30.12 in 10.0 mi Calm Calm - N/A   Clear
11:53 PM 75.0 °F - 72.0 °F 90% 30.12 in 5.0 mi Calm Calm - N/A   Mostly Cloudy